Home > Weather > Almaty > Past weeks

Flag for Kazakhstan Weather for the Past 2 Weeks in Almaty, Kazakhstan

Now
23 °F

Light snow. Ice fog.


Feels Like: 16 °F
Forecast: 15 / 26 °F
Wind: 6 mph from Northwest

Location: Almaty Airport

Current Time: Feb 10, 2016 at 12:41:55 AM

Latest Report: Feb 10, 2016 at 12:00 AM


Visibility: 1 mi

Pressure: 30.24 "Hg (27.34 "Hg at 790m altitude)

Humidity: 93%

Dew point: 21 °F

Location of AlmatyLocation

Historic Weather in Almaty — Graph

°F

Almaty Temperature Yesterday

Maximum temperature yesterday: 41 °F (at 1:30 AM)
Minimum temperature yesterday: 23 °F (at 10:30 PM)
Average temperature yesterday: 31 °F

High & Low Weather Summary for the Past Weeks

 TemperatureHumidityPressure
High50 °F (Feb 8, 3:30 PM)100% (Jan 27, 9:30 PM)30.54 "Hg (Jan 27, 9:30 PM)
Low14 °F (Feb 4, 3:30 AM)32% (Feb 6, 4:30 PM)29.80 "Hg (Jan 26, 2:30 PM)
Average29 °F80%30.20 "Hg
* Reported Jan 25 11:00 PM — Feb 9 11:30 PM, Almaty, Weather by CustomWeather, © 2016

Note: Actual official high and low records may vary slightly from our data, if they occured in-between our weather recording intervals... More about our weather records

Advertising

Almaty Weather History for the Previous 24 Hours

 ConditionsComfort  
Time TempWeatherWind HumidityBarometerVisibility
11:30 PM
Tue, Feb 9
23 °FLight snow. Ice fog.6 mph93%30.24 "Hg1 mi
11:00 PM23 °FLight snow. Ice fog.3 mph93%30.24 "Hg1 mi
10:30 PM23 °FLight snow. Ice fog.6 mph93%30.24 "Hg1 mi
9:30 PM25 °FLight snow. Ice fog.6 mph93%30.24 "Hg1 mi
9:00 PM25 °FLight snow. Ice fog.6 mph93%30.21 "Hg1 mi
8:30 PM27 °FLight snow. Ice fog.3 mph93%30.21 "Hg1 mi
8:00 PM27 °FLight snow. Ice fog.3 mph93%30.21 "Hg1 mi
7:30 PM27 °FLight snow. Ice fog.6 mph93%30.21 "Hg1 mi
7:00 PM27 °FLight snow. Ice fog.8 mph93%30.18 "Hg1 mi
6:30 PM28 °FLight snow. Ice fog.3 mph86%30.18 "Hg1 mi
6:00 PM28 °FLight snow. Ice fog.6 mph93%30.18 "Hg1 mi
5:30 PM28 °FIcy mix. Ice fog.6 mph93%30.15 "Hg2 mi
4:30 PM28 °FIcy mix. Ice fog.6 mph93%30.15 "Hg3 mi
4:00 PM28 °FIcy mix. Ice fog.8 mph93%30.15 "Hg1 mi
3:30 PM30 °FIce fog.3 mph93%30.12 "Hg3 mi
3:00 PM30 °FIce fog.6 mph93%30.12 "Hg2 mi
2:00 PM30 °FIce fog.8 mph93%30.12 "Hg3 mi
1:30 PM30 °FIce fog.8 mph93%30.12 "Hg3 mi
1:00 PM30 °FIce fog.6 mph93%30.15 "Hg3 mi
12:30 PM30 °FLight snow. Ice fog.3 mph93%30.15 "Hg3 mi
12:00 PM30 °FSnow. Ice fog.3 mph93%30.15 "Hg1 mi
11:30 AM30 °FSnow. Ice fog.1 mph93%30.15 "Hg1 mi
11:00 AM30 °FLight snow. Ice fog.3 mph93%30.15 "Hg1 mi
10:30 AM32 °FLight snow. Ice fog.3 mph87%30.15 "Hg1 mi
9:30 AM32 °FLight snow. Ice fog.6 mph93%30.12 "Hg2 mi
9:00 AM32 °FLight snow. Ice fog.3 mph87%30.12 "Hg2 mi
8:30 AM34 °FLight snow. Fog.6 mph81%30.12 "Hg3 mi
7:30 AM34 °FOvercast.6 mph81%30.09 "HgN/A
7:00 AM34 °FOvercast.10 mph81%30.09 "HgN/A
6:30 AM34 °FOvercast.8 mph81%30.09 "HgN/A
6:00 AM36 °FFog.8 mph75%30.07 "Hg3 mi
5:30 AM34 °FFog.8 mph75%30.01 "Hg2 mi
5:00 AM32 °FIce fog.10 mph80%29.98 "Hg1 mi
4:30 AM34 °FFog.3 mph70%29.92 "Hg3 mi
4:00 AM36 °FPassing clouds.1 mph65%29.92 "HgN/A
3:30 AM37 °FPassing clouds.6 mph65%29.92 "HgN/A
3:00 AM39 °FPassing clouds.6 mph61%29.95 "Hg3 mi
2:30 AM37 °FPassing clouds.3 mph65%29.95 "Hg3 mi
2:00 AM41 °FPassing clouds.6 mph53%29.95 "Hg3 mi
1:30 AM41 °FPassing clouds.6 mph53%29.95 "Hg2 mi
1:00 AM37 °FPassing clouds.6 mph65%29.98 "Hg1 mi
12:30 AM36 °FPassing clouds.3 mph70%29.98 "Hg2 mi
12:00 AM39 °FPassing clouds.3 mph56%29.98 "Hg1 mi
Weather by CustomWeather, © 2016

See weather overviewHow to use our weather pages